Location: *
(58.7167°N, 26.1833°E)
Time: 22:57:29
(UTC+00:00)

NOSS 0 Rocket - Pass Details

Date: 25 August 2019
Orbit: 936 x 953 km, 70.0° (Epoch: 15 September)

Event Time Altitude Azimuth Distance (km) Brightness Sun altitude
Rises 21:49:44 0° 319° (NW) 3,612 7.9 -20.4°
Reaches altitude 10° 21:52:16 10° 319° (NW) 2,666 7.1 -20.5°
Maximum altitude 21:58:28 84° 233° (SW) 956 3.8 -20.6°
Enters shadow 22:01:21 34° 148° (SSE) 1,506 4.5 -20.6°
